owner,sensor,date,latitude,longitude,vertical_datum,sea_water_practical_salinity,qcFlag 
SCCF RECON,ioos:station:SCCF:53:1,2009-04-01T00:00:00Z,26.6493,-81.8810,2.446,20.94,1111122 
SCCF RECON,ioos:station:SCCF:53:1,2009-04-01T01:00:00Z,26.6493,-81.8810,2.387,20.73,1111122 
SCCF RECON,ioos:station:SCCF:53:1,2009-04-01T02:00:00Z,26.6493,-81.8810,2.335,20.29,1111122 
SCCF RECON,ioos:station:SCCF:53:1,2009-04-01T03:00:00Z,26.6493,-81.8810,2.28,20.02,1111122 
SCCF RECON,ioos:station:SCCF:53:1,2009-04-01T04:00:00Z,26.6493,-81.8810,2.22,19.58,1111122 
SCCF RECON,ioos:station:SCCF:53:1,2009-04-01T05:00:00Z,26.6493,-81.8810,2.15,19.47,1111122 
SCCF RECON,ioos:station:SCCF:53:1,2009-04-01T06:00:00Z,26.6493,-81.8810,2.1,19.16,1111122 
SCCF RECON,ioos:station:SCCF:53:1,2009-04-01T07:00:00Z,26.6493,-81.8810,2.04,19.01,1111122 
SCCF RECON,ioos:station:SCCF:53:1,2009-04-01T08:00:00Z,26.6493,-81.8810,2.0,18.78,1111122 
SCCF RECON,ioos:station:SCCF:53:1,2009-04-01T09:00:00Z,26.6493,-81.8810,1.98,19.37,1111122 
SCCF RECON,ioos:station:SCCF:53:1,2009-04-01T10:00:00Z,26.6493,-81.8810,1.99,19.69,1111122 
SCCF RECON,ioos:station:SCCF:53:1,2009-04-01T11:00:00Z,26.6493,-81.8810,2.04,19.77,1111122 
SCCF RECON,ioos:station:SCCF:53:1,2009-04-01T12:00:00Z,26.6493,-81.8810,2.083,19.81,1111122 
SCCF RECON,ioos:station:SCCF:53:1,2009-04-01T13:00:00Z,26.6493,-81.8810,2.13,19.81,1111122 
SCCF RECON,ioos:station:SCCF:53:1,2009-04-01T14:00:00Z,26.6493,-81.8810,2.171,19.79,1111122 
SCCF RECON,ioos:station:SCCF:53:1,2009-04-01T15:00:00Z,26.6493,-81.8810,2.217,19.86,1111122 
SCCF RECON,ioos:station:SCCF:53:1,2009-04-01T16:00:00Z,26.6493,-81.8810,2.252,20.06,1111122 
SCCF RECON,ioos:station:SCCF:53:1,2009-04-01T17:00:00Z,26.6493,-81.8810,2.294,20.14,1111122 
SCCF RECON,ioos:station:SCCF:53:1,2009-04-01T18:00:00Z,26.6493,-81.8810,2.316,20.19,1111122 
SCCF RECON,ioos:station:SCCF:53:1,2009-04-01T19:00:00Z,26.6493,-81.8810,2.341,20.13,1111122 
SCCF RECON,ioos:station:SCCF:53:1,2009-04-01T20:00:00Z,26.6493,-81.8810,2.377,20.06,1111122 
SCCF RECON,ioos:station:SCCF:53:1,2009-04-01T21:00:00Z,26.6493,-81.8810,2.412,20.77,1111122 
SCCF RECON,ioos:station:SCCF:53:1,2009-04-01T22:00:00Z,26.6493,-81.8810,2.453,20.54,1111122 
SCCF RECON,ioos:station:SCCF:53:1,2009-04-01T23:00:00Z,26.6493,-81.8810,2.483,20.58,1111122 
SCCF RECON,ioos:station:SCCF:53:1,2009-04-02T00:00:00Z,26.6493,-81.8810,2.5,20.51,1111122 
SCCF RECON,ioos:station:SCCF:53:1,2009-04-02T01:00:00Z,26.6493,-81.8810,2.482,20.37,1111122 
SCCF RECON,ioos:station:SCCF:53:1,2009-04-02T02:00:00Z,26.6493,-81.8810,2.43,20.2,1111122 
SCCF RECON,ioos:station:SCCF:53:1,2009-04-02T03:00:00Z,26.6493,-81.8810,2.376,20.02,1111122 
SCCF RECON,ioos:station:SCCF:53:1,2009-04-02T04:00:00Z,26.6493,-81.8810,2.31,19.76,1111122 
SCCF RECON,ioos:station:SCCF:53:1,2009-04-02T05:00:00Z,26.6493,-81.8810,2.249,19.28,1111122 
SCCF RECON,ioos:station:SCCF:53:1,2009-04-02T06:00:00Z,26.6493,-81.8810,2.18,18.97,1111122 
SCCF RECON,ioos:station:SCCF:53:1,2009-04-02T07:00:00Z,26.6493,-81.8810,2.119,18.6,1111122 
SCCF RECON,ioos:station:SCCF:53:1,2009-04-02T08:00:00Z,26.6493,-81.8810,2.05,18.4,1111122 
SCCF RECON,ioos:station:SCCF:53:1,2009-04-02T09:00:00Z,26.6493,-81.8810,2.01,18.27,1111122 
SCCF RECON,ioos:station:SCCF:53:1,2009-04-02T10:00:00Z,26.6493,-81.8810,2.0,18.19,1111122 
SCCF RECON,ioos:station:SCCF:53:1,2009-04-02T11:00:00Z,26.6493,-81.8810,2.01,18.56,1111122 
SCCF RECON,ioos:station:SCCF:53:1,2009-04-02T12:00:00Z,26.6493,-81.8810,2.06,18.62,1111122 
SCCF RECON,ioos:station:SCCF:53:1,2009-04-02T13:00:00Z,26.6493,-81.8810,2.11,18.89,1111122 
SCCF RECON,ioos:station:SCCF:53:1,2009-04-02T14:00:00Z,26.6493,-81.8810,2.16,18.92,1111122 
SCCF RECON,ioos:station:SCCF:53:1,2009-04-02T15:00:00Z,26.6493,-81.8810,2.21,19.25,1111122 
SCCF RECON,ioos:station:SCCF:53:1,2009-04-02T16:00:00Z,26.6493,-81.8810,2.256,19.71,1111122 
SCCF RECON,ioos:station:SCCF:53:1,2009-04-02T17:00:00Z,26.6493,-81.8810,2.288,19.89,1111122 
SCCF RECON,ioos:station:SCCF:53:1,2009-04-02T18:00:00Z,26.6493,-81.8810,2.313,20.09,1111122 
SCCF RECON,ioos:station:SCCF:53:1,2009-04-02T19:00:00Z,26.6493,-81.8810,2.338,20.09,1111122 
SCCF RECON,ioos:station:SCCF:53:1,2009-04-02T20:00:00Z,26.6493,-81.8810,2.37,19.89,1111122 
SCCF RECON,ioos:station:SCCF:53:1,2009-04-02T21:00:00Z,26.6493,-81.8810,2.405,20.67,1111122 
SCCF RECON,ioos:station:SCCF:53:1,2009-04-02T22:00:00Z,26.6493,-81.8810,2.43,20.66,1111122 
SCCF RECON,ioos:station:SCCF:53:1,2009-04-02T23:00:00Z,26.6493,-81.8810,2.454,20.57,1111122 
SCCF RECON,ioos:station:SCCF:53:1,2009-04-03T00:00:00Z,26.6493,-81.8810,2.481,20.68,1111122 
SCCF RECON,ioos:station:SCCF:53:1,2009-04-03T01:00:00Z,26.6493,-81.8810,2.5,20.68,1111122 
SCCF RECON,ioos:station:SCCF:53:1,2009-04-03T02:00:00Z,26.6493,-81.8810,2.495,19.93,1111122 
SCCF RECON,ioos:station:SCCF:53:1,2009-04-03T03:00:00Z,26.6493,-81.8810,2.461,20.07,1111122 
SCCF RECON,ioos:station:SCCF:53:1,2009-04-03T04:00:00Z,26.6493,-81.8810,2.42,20.12,1111122 
SCCF RECON,ioos:station:SCCF:53:1,2009-04-03T05:00:00Z,26.6493,-81.8810,2.365,19.45,1111122 
SCCF RECON,ioos:station:SCCF:53:1,2009-04-03T06:00:00Z,26.6493,-81.8810,2.319,19.31,1111122 
SCCF RECON,ioos:station:SCCF:53:1,2009-04-03T07:00:00Z,26.6493,-81.8810,2.263,19.28,1111122 
SCCF RECON,ioos:station:SCCF:53:1,2009-04-03T08:00:00Z,26.6493,-81.8810,2.207,19.03,1111122 
SCCF RECON,ioos:station:SCCF:53:1,2009-04-03T09:00:00Z,26.6493,-81.8810,2.162,18.46,1111122 
SCCF RECON,ioos:station:SCCF:53:1,2009-04-03T10:00:00Z,26.6493,-81.8810,2.125,18.02,1111122 
SCCF RECON,ioos:station:SCCF:53:1,2009-04-03T11:00:00Z,26.6493,-81.8810,2.104,17.81,1111122 
SCCF RECON,ioos:station:SCCF:53:1,2009-04-03T12:00:00Z,26.6493,-81.8810,2.113,18.72,1111122 
SCCF RECON,ioos:station:SCCF:53:1,2009-04-03T13:00:00Z,26.6493,-81.8810,2.173,18.95,1111122 
SCCF RECON,ioos:station:SCCF:53:1,2009-04-03T14:00:00Z,26.6493,-81.8810,2.228,19.24,1111122 
SCCF RECON,ioos:station:SCCF:53:1,2009-04-03T15:00:00Z,26.6493,-81.8810,2.29,20.13,1111122 
SCCF RECON,ioos:station:SCCF:53:1,2009-04-03T16:00:00Z,26.6493,-81.8810,2.35,19.5,1111122 
SCCF RECON,ioos:station:SCCF:53:1,2009-04-03T17:00:00Z,26.6493,-81.8810,2.404,19.35,1111122 
SCCF RECON,ioos:station:SCCF:53:1,2009-04-03T18:00:00Z,26.6493,-81.8810,2.428,19.4,1111122 
SCCF RECON,ioos:station:SCCF:53:1,2009-04-03T19:00:00Z,26.6493,-81.8810,2.433,19.75,1111122 
SCCF RECON,ioos:station:SCCF:53:1,2009-04-03T20:00:00Z,26.6493,-81.8810,2.429,19.41,1111122 
SCCF RECON,ioos:station:SCCF:53:1,2009-04-03T21:00:00Z,26.6493,-81.8810,2.418,19.12,1111122 
SCCF RECON,ioos:station:SCCF:53:1,2009-04-03T22:00:00Z,26.6493,-81.8810,2.426,19.11,1111122 
SCCF RECON,ioos:station:SCCF:53:1,2009-04-03T23:00:00Z,26.6493,-81.8810,2.453,19.11,1111122 
SCCF RECON,ioos:station:SCCF:53:1,2009-04-04T00:00:00Z,26.6493,-81.8810,2.48,20.26,1111122 
SCCF RECON,ioos:station:SCCF:53:1,2009-04-04T01:00:00Z,26.6493,-81.8810,2.47,20.69,1111122 
SCCF RECON,ioos:station:SCCF:53:1,2009-04-04T02:00:00Z,26.6493,-81.8810,2.44,20.62,1111122 
SCCF RECON,ioos:station:SCCF:53:1,2009-04-04T03:00:00Z,26.6493,-81.8810,2.41,20.71,1111122 
SCCF RECON,ioos:station:SCCF:53:1,2009-04-04T04:00:00Z,26.6493,-81.8810,2.362,20.88,1111122 
SCCF RECON,ioos:station:SCCF:53:1,2009-04-04T05:00:00Z,26.6493,-81.8810,2.32,21.01,1111122 
SCCF RECON,ioos:station:SCCF:53:1,2009-04-04T06:00:00Z,26.6493,-81.8810,2.27,20.78,1111122 
SCCF RECON,ioos:station:SCCF:53:1,2009-04-04T07:00:00Z,26.6493,-81.8810,2.21,20.74,1111122 
SCCF RECON,ioos:station:SCCF:53:1,2009-04-04T08:00:00Z,26.6493,-81.8810,2.15,21.0,1111122 
SCCF RECON,ioos:station:SCCF:53:1,2009-04-04T09:00:00Z,26.6493,-81.8810,2.09,21.14,1111122 
SCCF RECON,ioos:station:SCCF:53:1,2009-04-04T10:00:00Z,26.6493,-81.8810,2.044,21.14,1111122 
SCCF RECON,ioos:station:SCCF:53:1,2009-04-04T11:00:00Z,26.6493,-81.8810,2.0,21.3,1111122 
SCCF RECON,ioos:station:SCCF:53:1,2009-04-04T12:00:00Z,26.6493,-81.8810,1.98,21.42,1111122 
SCCF RECON,ioos:station:SCCF:53:1,2009-04-04T13:00:00Z,26.6493,-81.8810,1.983,21.59,1111122 
SCCF RECON,ioos:station:SCCF:53:1,2009-04-04T14:00:00Z,26.6493,-81.8810,2.023,21.3,1111122 
SCCF RECON,ioos:station:SCCF:53:1,2009-04-04T15:00:00Z,26.6493,-81.8810,2.07,21.39,1111122 
SCCF RECON,ioos:station:SCCF:53:1,2009-04-04T16:00:00Z,26.6493,-81.8810,2.111,21.22,1111122 
SCCF RECON,ioos:station:SCCF:53:1,2009-04-04T17:00:00Z,26.6493,-81.8810,2.151,20.62,1111122 
SCCF RECON,ioos:station:SCCF:53:1,2009-04-04T18:00:00Z,26.6493,-81.8810,2.18,20.95,1111122 
SCCF RECON,ioos:station:SCCF:53:1,2009-04-04T19:00:00Z,26.6493,-81.8810,2.184,21.34,1111122 
SCCF RECON,ioos:station:SCCF:53:1,2009-04-04T20:00:00Z,26.6493,-81.8810,2.174,21.43,1111122 
SCCF RECON,ioos:station:SCCF:53:1,2009-04-04T21:00:00Z,26.6493,-81.8810,2.14,21.12,1111122 
SCCF RECON,ioos:station:SCCF:53:1,2009-04-04T22:00:00Z,26.6493,-81.8810,2.119,20.79,1111122 
SCCF RECON,ioos:station:SCCF:53:1,2009-04-04T23:00:00Z,26.6493,-81.8810,2.13,20.51,1111122 
SCCF RECON,ioos:station:SCCF:53:1,2009-04-05T00:00:00Z,26.6493,-81.8810,2.171,20.53,1111122 
SCCF RECON,ioos:station:SCCF:53:1,2009-04-05T01:00:00Z,26.6493,-81.8810,2.22,20.28,1111122 
SCCF RECON,ioos:station:SCCF:53:1,2009-04-05T02:00:00Z,26.6493,-81.8810,2.26,20.44,1111122 
SCCF RECON,ioos:station:SCCF:53:1,2009-04-05T03:00:00Z,26.6493,-81.8810,2.31,20.83,1111122 
SCCF RECON,ioos:station:SCCF:53:1,2009-04-05T04:00:00Z,26.6493,-81.8810,2.34,20.79,1111122 
SCCF RECON,ioos:station:SCCF:53:1,2009-04-05T05:00:00Z,26.6493,-81.8810,2.34,20.7,1111122 
SCCF RECON,ioos:station:SCCF:53:1,2009-04-05T06:00:00Z,26.6493,-81.8810,2.31,20.81,1111122 
SCCF RECON,ioos:station:SCCF:53:1,2009-04-05T07:00:00Z,26.6493,-81.8810,2.25,20.65,1111122 
SCCF RECON,ioos:station:SCCF:53:1,2009-04-05T08:00:00Z,26.6493,-81.8810,2.19,20.74,1111122 
SCCF RECON,ioos:station:SCCF:53:1,2009-04-05T09:00:00Z,26.6493,-81.8810,2.13,20.64,1111122 
SCCF RECON,ioos:station:SCCF:53:1,2009-04-05T10:00:00Z,26.6493,-81.8810,2.08,20.7,1111122 
SCCF RECON,ioos:station:SCCF:53:1,2009-04-05T11:00:00Z,26.6493,-81.8810,2.03,20.6,1111122 
SCCF RECON,ioos:station:SCCF:53:1,2009-04-05T12:00:00Z,26.6493,-81.8810,1.991,20.87,1111122 
SCCF RECON,ioos:station:SCCF:53:1,2009-04-05T13:00:00Z,26.6493,-81.8810,1.99,20.93,1111122 
SCCF RECON,ioos:station:SCCF:53:1,2009-04-05T14:00:00Z,26.6493,-81.8810,2.03,20.94,1111122 
SCCF RECON,ioos:station:SCCF:53:1,2009-04-05T15:00:00Z,26.6493,-81.8810,2.084,20.65,1111122 
SCCF RECON,ioos:station:SCCF:53:1,2009-04-05T16:00:00Z,26.6493,-81.8810,2.137,20.36,1111122 
SCCF RECON,ioos:station:SCCF:53:1,2009-04-05T17:00:00Z,26.6493,-81.8810,2.198,20.6,1111122 
SCCF RECON,ioos:station:SCCF:53:1,2009-04-05T18:00:00Z,26.6493,-81.8810,2.244,20.83,1111122 
SCCF RECON,ioos:station:SCCF:53:1,2009-04-05T19:00:00Z,26.6493,-81.8810,2.273,20.89,1111122 
SCCF RECON,ioos:station:SCCF:53:1,2009-04-05T20:00:00Z,26.6493,-81.8810,2.265,20.96,1111122 
SCCF RECON,ioos:station:SCCF:53:1,2009-04-05T21:00:00Z,26.6493,-81.8810,2.227,20.74,1111122 
SCCF RECON,ioos:station:SCCF:53:1,2009-04-05T22:00:00Z,26.6493,-81.8810,2.188,20.4,1111122 
SCCF RECON,ioos:station:SCCF:53:1,2009-04-05T23:00:00Z,26.6493,-81.8810,2.152,19.76,1111122 
SCCF RECON,ioos:station:SCCF:53:1,2009-04-06T00:00:00Z,26.6493,-81.8810,2.13,19.43,1111122 
SCCF RECON,ioos:station:SCCF:53:1,2009-04-06T01:00:00Z,26.6493,-81.8810,2.159,19.28,1111122 
SCCF RECON,ioos:station:SCCF:53:1,2009-04-06T02:00:00Z,26.6493,-81.8810,2.21,20.34,1111122 
SCCF RECON,ioos:station:SCCF:53:1,2009-04-06T03:00:00Z,26.6493,-81.8810,2.255,20.66,1111122 
SCCF RECON,ioos:station:SCCF:53:1,2009-04-06T04:00:00Z,26.6493,-81.8810,2.309,20.62,1111122 
SCCF RECON,ioos:station:SCCF:53:1,2009-04-06T05:00:00Z,26.6493,-81.8810,2.352,20.84,1111122 
SCCF RECON,ioos:station:SCCF:53:1,2009-04-06T06:00:00Z,26.6493,-81.8810,2.374,20.99,1111122 
SCCF RECON,ioos:station:SCCF:53:1,2009-04-06T07:00:00Z,26.6493,-81.8810,2.35,21.04,1111122 
SCCF RECON,ioos:station:SCCF:53:1,2009-04-06T08:00:00Z,26.6493,-81.8810,2.295,20.76,1111122 
SCCF RECON,ioos:station:SCCF:53:1,2009-04-06T09:00:00Z,26.6493,-81.8810,2.241,19.99,1111122 
SCCF RECON,ioos:station:SCCF:53:1,2009-04-06T10:00:00Z,26.6493,-81.8810,2.188,19.69,1111122 
SCCF RECON,ioos:station:SCCF:53:1,2009-04-06T11:00:00Z,26.6493,-81.8810,2.137,19.15,1111122 
SCCF RECON,ioos:station:SCCF:53:1,2009-04-06T12:00:00Z,26.6493,-81.8810,2.091,18.8,1111122 
SCCF RECON,ioos:station:SCCF:53:1,2009-04-06T13:00:00Z,26.6493,-81.8810,2.06,18.56,1111122 
SCCF RECON,ioos:station:SCCF:53:1,2009-04-06T14:00:00Z,26.6493,-81.8810,2.091,18.55,1111122 
SCCF RECON,ioos:station:SCCF:53:1,2009-04-06T15:00:00Z,26.6493,-81.8810,2.143,19.87,1111122 
SCCF RECON,ioos:station:SCCF:53:1,2009-04-06T16:00:00Z,26.6493,-81.8810,2.187,20.21,1111122 
SCCF RECON,ioos:station:SCCF:53:1,2009-04-06T17:00:00Z,26.6493,-81.8810,2.244,20.45,1111122 
SCCF RECON,ioos:station:SCCF:53:1,2009-04-06T18:00:00Z,26.6493,-81.8810,2.3,21.06,1111122 
SCCF RECON,ioos:station:SCCF:53:1,2009-04-06T19:00:00Z,26.6493,-81.8810,2.334,21.19,1111122 
SCCF RECON,ioos:station:SCCF:53:1,2009-04-06T20:00:00Z,26.6493,-81.8810,2.337,21.3,1111122 
SCCF RECON,ioos:station:SCCF:53:1,2009-04-06T21:00:00Z,26.6493,-81.8810,2.307,21.46,1111122 
SCCF RECON,ioos:station:SCCF:53:1,2009-04-06T22:00:00Z,26.6493,-81.8810,2.272,21.0,1111122 
SCCF RECON,ioos:station:SCCF:53:1,2009-04-06T23:00:00Z,26.6493,-81.8810,2.228,20.26,1111122 
SCCF RECON,ioos:station:SCCF:53:1,2009-04-07T00:00:00Z,26.6493,-81.8810,2.188,19.44,1111122 
SCCF RECON,ioos:station:SCCF:53:1,2009-04-07T01:00:00Z,26.6493,-81.8810,2.149,19.35,1111122 
SCCF RECON,ioos:station:SCCF:53:1,2009-04-07T02:00:00Z,26.6493,-81.8810,2.13,18.84,1111122 
SCCF RECON,ioos:station:SCCF:53:1,2009-04-07T03:00:00Z,26.6493,-81.8810,2.151,18.77,1111122 
SCCF RECON,ioos:station:SCCF:53:1,2009-04-07T04:00:00Z,26.6493,-81.8810,2.205,19.51,1111122 
SCCF RECON,ioos:station:SCCF:53:1,2009-04-07T05:00:00Z,26.6493,-81.8810,2.25,20.14,1111122 
SCCF RECON,ioos:station:SCCF:53:1,2009-04-07T06:00:00Z,26.6493,-81.8810,2.294,20.49,1111122 
SCCF RECON,ioos:station:SCCF:53:1,2009-04-07T07:00:00Z,26.6493,-81.8810,2.317,20.61,1111122 
SCCF RECON,ioos:station:SCCF:53:1,2009-04-07T08:00:00Z,26.6493,-81.8810,2.28,20.42,1111122 
SCCF RECON,ioos:station:SCCF:53:1,2009-04-07T09:00:00Z,26.6493,-81.8810,2.239,19.94,1111122 
SCCF RECON,ioos:station:SCCF:53:1,2009-04-07T10:00:00Z,26.6493,-81.8810,2.198,19.52,1111122 
SCCF RECON,ioos:station:SCCF:53:1,2009-04-07T11:00:00Z,26.6493,-81.8810,2.141,18.64,1111122 
SCCF RECON,ioos:station:SCCF:53:1,2009-04-07T12:00:00Z,26.6493,-81.8810,2.102,18.37,1111122 
SCCF RECON,ioos:station:SCCF:53:1,2009-04-07T13:00:00Z,26.6493,-81.8810,2.063,18.1,1111122 
SCCF RECON,ioos:station:SCCF:53:1,2009-04-07T14:00:00Z,26.6493,-81.8810,2.023,17.89,1111122 
SCCF RECON,ioos:station:SCCF:53:1,2009-04-07T15:00:00Z,26.6493,-81.8810,2.01,17.63,1111122 
SCCF RECON,ioos:station:SCCF:53:1,2009-04-07T16:00:00Z,26.6493,-81.8810,2.037,17.88,1111122 
SCCF RECON,ioos:station:SCCF:53:1,2009-04-07T17:00:00Z,26.6493,-81.8810,2.067,18.09,1111122 
SCCF RECON,ioos:station:SCCF:53:1,2009-04-07T18:00:00Z,26.6493,-81.8810,2.099,19.03,1111122 
SCCF RECON,ioos:station:SCCF:53:1,2009-04-07T19:00:00Z,26.6493,-81.8810,2.114,19.36,1111122 
SCCF RECON,ioos:station:SCCF:53:1,2009-04-07T20:00:00Z,26.6493,-81.8810,2.11,19.24,1111122 
SCCF RECON,ioos:station:SCCF:53:1,2009-04-07T21:00:00Z,26.6493,-81.8810,2.065,18.75,1111122 
SCCF RECON,ioos:station:SCCF:53:1,2009-04-07T22:00:00Z,26.6493,-81.8810,2.03,17.87,1111122 
SCCF RECON,ioos:station:SCCF:53:1,2009-04-07T23:00:00Z,26.6493,-81.8810,1.994,17.89,1111122 
SCCF RECON,ioos:station:SCCF:53:1,2009-04-08T00:00:00Z,26.6493,-81.8810,1.962,17.8,1111122 
SCCF RECON,ioos:station:SCCF:53:1,2009-04-08T01:00:00Z,26.6493,-81.8810,1.929,17.13,1111122 
SCCF RECON,ioos:station:SCCF:53:1,2009-04-08T02:00:00Z,26.6493,-81.8810,1.9,16.92,1111122 
SCCF RECON,ioos:station:SCCF:53:1,2009-04-08T03:00:00Z,26.6493,-81.8810,1.892,17.04,1111122 
SCCF RECON,ioos:station:SCCF:53:1,2009-04-08T04:00:00Z,26.6493,-81.8810,1.95,17.14,1111122 
SCCF RECON,ioos:station:SCCF:53:1,2009-04-08T05:00:00Z,26.6493,-81.8810,1.99,17.83,1111122 
SCCF RECON,ioos:station:SCCF:53:1,2009-04-08T06:00:00Z,26.6493,-81.8810,2.03,18.26,1111122 
SCCF RECON,ioos:station:SCCF:53:1,2009-04-08T07:00:00Z,26.6493,-81.8810,2.08,18.64,1111122 
SCCF RECON,ioos:station:SCCF:53:1,2009-04-08T08:00:00Z,26.6493,-81.8810,2.1,19.46,1111122 
SCCF RECON,ioos:station:SCCF:53:1,2009-04-08T09:00:00Z,26.6493,-81.8810,2.09,20.34,1111122 
SCCF RECON,ioos:station:SCCF:53:1,2009-04-08T10:00:00Z,26.6493,-81.8810,2.05,18.52,1111122 
SCCF RECON,ioos:station:SCCF:53:1,2009-04-08T11:00:00Z,26.6493,-81.8810,2.02,17.97,1111122 
SCCF RECON,ioos:station:SCCF:53:1,2009-04-08T12:00:00Z,26.6493,-81.8810,1.99,19.24,1111122 
SCCF RECON,ioos:station:SCCF:53:1,2009-04-08T13:00:00Z,26.6493,-81.8810,1.949,17.92,1111122 
SCCF RECON,ioos:station:SCCF:53:1,2009-04-08T14:00:00Z,26.6493,-81.8810,1.92,17.48,1111122 
SCCF RECON,ioos:station:SCCF:53:1,2009-04-08T15:00:00Z,26.6493,-81.8810,1.93,17.42,1111122 
SCCF RECON,ioos:station:SCCF:53:1,2009-04-08T16:00:00Z,26.6493,-81.8810,1.982,17.73,1111122 
SCCF RECON,ioos:station:SCCF:53:1,2009-04-08T17:00:00Z,26.6493,-81.8810,2.024,18.54,1111122 
SCCF RECON,ioos:station:SCCF:53:1,2009-04-08T18:00:00Z,26.6493,-81.8810,2.074,19.15,1111122 
SCCF RECON,ioos:station:SCCF:53:1,2009-04-08T19:00:00Z,26.6493,-81.8810,2.13,19.91,1111122 
SCCF RECON,ioos:station:SCCF:53:1,2009-04-08T20:00:00Z,26.6493,-81.8810,2.164,20.26,1111122 
SCCF RECON,ioos:station:SCCF:53:1,2009-04-08T21:00:00Z,26.6493,-81.8810,2.151,20.5,1111122 
SCCF RECON,ioos:station:SCCF:53:1,2009-04-08T22:00:00Z,26.6493,-81.8810,2.11,19.71,1111122 
SCCF RECON,ioos:station:SCCF:53:1,2009-04-08T23:00:00Z,26.6493,-81.8810,2.07,19.05,1111122 
SCCF RECON,ioos:station:SCCF:53:1,2009-04-09T00:00:00Z,26.6493,-81.8810,2.027,18.58,1111122 
SCCF RECON,ioos:station:SCCF:53:1,2009-04-09T01:00:00Z,26.6493,-81.8810,1.98,18.28,1111122 
SCCF RECON,ioos:station:SCCF:53:1,2009-04-09T02:00:00Z,26.6493,-81.8810,1.95,18.02,1111122 
SCCF RECON,ioos:station:SCCF:53:1,2009-04-09T03:00:00Z,26.6493,-81.8810,1.924,17.83,1111122 
SCCF RECON,ioos:station:SCCF:53:1,2009-04-09T04:00:00Z,26.6493,-81.8810,1.96,17.97,1111122 
SCCF RECON,ioos:station:SCCF:53:1,2009-04-09T05:00:00Z,26.6493,-81.8810,2.006,18.41,1111122 
SCCF RECON,ioos:station:SCCF:53:1,2009-04-09T06:00:00Z,26.6493,-81.8810,2.046,18.92,1111122 
SCCF RECON,ioos:station:SCCF:53:1,2009-04-09T07:00:00Z,26.6493,-81.8810,2.1,19.43,1111122 
SCCF RECON,ioos:station:SCCF:53:1,2009-04-09T08:00:00Z,26.6493,-81.8810,2.15,19.58,1111122 
SCCF RECON,ioos:station:SCCF:53:1,2009-04-09T09:00:00Z,26.6493,-81.8810,2.18,19.81,1111122 
SCCF RECON,ioos:station:SCCF:53:1,2009-04-09T10:00:00Z,26.6493,-81.8810,2.17,19.88,1111122 
SCCF RECON,ioos:station:SCCF:53:1,2009-04-09T11:00:00Z,26.6493,-81.8810,2.14,19.36,1111122 
SCCF RECON,ioos:station:SCCF:53:1,2009-04-09T12:00:00Z,26.6493,-81.8810,2.105,19.12,1111122 
SCCF RECON,ioos:station:SCCF:53:1,2009-04-09T13:00:00Z,26.6493,-81.8810,2.069,19.42,1111122 
SCCF RECON,ioos:station:SCCF:53:1,2009-04-09T14:00:00Z,26.6493,-81.8810,2.03,19.45,1111122 
SCCF RECON,ioos:station:SCCF:53:1,2009-04-09T15:00:00Z,26.6493,-81.8810,2.046,19.78,1111122 
SCCF RECON,ioos:station:SCCF:53:1,2009-04-09T16:00:00Z,26.6493,-81.8810,2.104,20.04,1111122 
SCCF RECON,ioos:station:SCCF:53:1,2009-04-09T17:00:00Z,26.6493,-81.8810,2.155,20.18,1111122 
SCCF RECON,ioos:station:SCCF:53:1,2009-04-09T18:00:00Z,26.6493,-81.8810,2.2,20.5,1111122 
SCCF RECON,ioos:station:SCCF:53:1,2009-04-09T19:00:00Z,26.6493,-81.8810,2.252,20.73,1111122 
SCCF RECON,ioos:station:SCCF:53:1,2009-04-09T20:00:00Z,26.6493,-81.8810,2.29,20.82,1111122 
SCCF RECON,ioos:station:SCCF:53:1,2009-04-09T21:00:00Z,26.6493,-81.8810,2.291,20.91,1111122 
SCCF RECON,ioos:station:SCCF:53:1,2009-04-09T22:00:00Z,26.6493,-81.8810,2.247,20.69,1111122 
SCCF RECON,ioos:station:SCCF:53:1,2009-04-09T23:00:00Z,26.6493,-81.8810,2.193,20.48,1111122 
SCCF RECON,ioos:station:SCCF:53:1,2009-04-10T00:00:00Z,26.6493,-81.8810,2.143,19.87,1111122 
SCCF RECON,ioos:station:SCCF:53:1,2009-04-10T01:00:00Z,26.6493,-81.8810,2.09,19.43,1111122 
SCCF RECON,ioos:station:SCCF:53:1,2009-04-10T02:00:00Z,26.6493,-81.8810,2.046,18.97,1111122 
SCCF RECON,ioos:station:SCCF:53:1,2009-04-10T03:00:00Z,26.6493,-81.8810,2.001,18.45,1111122 
SCCF RECON,ioos:station:SCCF:53:1,2009-04-10T04:00:00Z,26.6493,-81.8810,2.0,18.37,1111122 
SCCF RECON,ioos:station:SCCF:53:1,2009-04-10T05:00:00Z,26.6493,-81.8810,2.05,18.94,1111122 
SCCF RECON,ioos:station:SCCF:53:1,2009-04-10T06:00:00Z,26.6493,-81.8810,2.08,19.31,1111122 
SCCF RECON,ioos:station:SCCF:53:1,2009-04-10T07:00:00Z,26.6493,-81.8810,2.13,19.66,1111122 
SCCF RECON,ioos:station:SCCF:53:1,2009-04-10T08:00:00Z,26.6493,-81.8810,2.18,20.03,1111122 
SCCF RECON,ioos:station:SCCF:53:1,2009-04-10T09:00:00Z,26.6493,-81.8810,2.23,20.34,1111122 
SCCF RECON,ioos:station:SCCF:53:1,2009-04-10T10:00:00Z,26.6493,-81.8810,2.25,20.62,1111122 
SCCF RECON,ioos:station:SCCF:53:1,2009-04-10T11:00:00Z,26.6493,-81.8810,2.24,20.4,1111122 
SCCF RECON,ioos:station:SCCF:53:1,2009-04-10T12:00:00Z,26.6493,-81.8810,2.21,20.07,1111122 
SCCF RECON,ioos:station:SCCF:53:1,2009-04-10T13:00:00Z,26.6493,-81.8810,2.16,19.8,1111122 
SCCF RECON,ioos:station:SCCF:53:1,2009-04-10T14:00:00Z,26.6493,-81.8810,2.146,19.2,1111122 
SCCF RECON,ioos:station:SCCF:53:1,2009-04-10T15:00:00Z,26.6493,-81.8810,2.172,20.16,1111122 
SCCF RECON,ioos:station:SCCF:53:1,2009-04-10T16:00:00Z,26.6493,-81.8810,2.236,19.9,1111122 
SCCF RECON,ioos:station:SCCF:53:1,2009-04-10T17:00:00Z,26.6493,-81.8810,2.293,20.43,1111122 
SCCF RECON,ioos:station:SCCF:53:1,2009-04-10T18:00:00Z,26.6493,-81.8810,2.357,20.72,1111122 
SCCF RECON,ioos:station:SCCF:53:1,2009-04-10T19:00:00Z,26.6493,-81.8810,2.42,21.24,1111122 
SCCF RECON,ioos:station:SCCF:53:1,2009-04-10T20:00:00Z,26.6493,-81.8810,2.47,21.63,1111122 
SCCF RECON,ioos:station:SCCF:53:1,2009-04-10T21:00:00Z,26.6493,-81.8810,2.498,21.79,1111122 
SCCF RECON,ioos:station:SCCF:53:1,2009-04-10T22:00:00Z,26.6493,-81.8810,2.462,21.74,1111122 
SCCF RECON,ioos:station:SCCF:53:1,2009-04-10T23:00:00Z,26.6493,-81.8810,2.406,21.32,1111122 
SCCF RECON,ioos:station:SCCF:53:1,2009-04-11T00:00:00Z,26.6493,-81.8810,2.342,20.81,1111122 
SCCF RECON,ioos:station:SCCF:53:1,2009-04-11T01:00:00Z,26.6493,-81.8810,2.28,20.1,1111122 
SCCF RECON,ioos:station:SCCF:53:1,2009-04-11T02:00:00Z,26.6493,-81.8810,2.217,19.7,1111122 
SCCF RECON,ioos:station:SCCF:53:1,2009-04-11T03:00:00Z,26.6493,-81.8810,2.16,19.37,1111122 
SCCF RECON,ioos:station:SCCF:53:1,2009-04-11T04:00:00Z,26.6493,-81.8810,2.11,19.1,1111122 
SCCF RECON,ioos:station:SCCF:53:1,2009-04-11T05:00:00Z,26.6493,-81.8810,2.09,19.03,1111122 
SCCF RECON,ioos:station:SCCF:53:1,2009-04-11T06:00:00Z,26.6493,-81.8810,2.11,19.65,1111122 
SCCF RECON,ioos:station:SCCF:53:1,2009-04-11T07:00:00Z,26.6493,-81.8810,2.15,19.98,1111122 
SCCF RECON,ioos:station:SCCF:53:1,2009-04-11T08:00:00Z,26.6493,-81.8810,2.19,20.15,1111122 
SCCF RECON,ioos:station:SCCF:53:1,2009-04-11T09:00:00Z,26.6493,-81.8810,2.24,20.23,1111122 
SCCF RECON,ioos:station:SCCF:53:1,2009-04-11T10:00:00Z,26.6493,-81.8810,2.26,20.61,1111122 
SCCF RECON,ioos:station:SCCF:53:1,2009-04-11T11:00:00Z,26.6493,-81.8810,2.24,20.63,1111122 
SCCF RECON,ioos:station:SCCF:53:1,2009-04-11T12:00:00Z,26.6493,-81.8810,2.21,20.26,1111122 
SCCF RECON,ioos:station:SCCF:53:1,2009-04-11T13:00:00Z,26.6493,-81.8810,2.18,19.93,1111122 
SCCF RECON,ioos:station:SCCF:53:1,2009-04-11T14:00:00Z,26.6493,-81.8810,2.147,20.55,1111122 
SCCF RECON,ioos:station:SCCF:53:1,2009-04-11T15:00:00Z,26.6493,-81.8810,2.123,20.23,1111122 
SCCF RECON,ioos:station:SCCF:53:1,2009-04-11T16:00:00Z,26.6493,-81.8810,2.16,20.59,1111122 
SCCF RECON,ioos:station:SCCF:53:1,2009-04-11T17:00:00Z,26.6493,-81.8810,2.225,20.11,1111122 